Outer Banks, North Carolina, United States
Lat: 35.98N, Lon: 75.65W
Wx Zone: NCZ103
Local Info
Past Weather Observations for Today

NOTE: This archive is for the closest National Weather Service station to Outer Banks. Information may differ from the station used for current weather conditions.

Click here for Long-term Archive

Time Weather Temperature Dewpoint Humidity Pressure Winds Precip Visibility
18:55
Clear
77°F / 25°C 72°F / 22°C 83% 29.98 in
(1015 mb)
E 3.5 mph
(E 6 kph)
- 10SM
18:35
Clear
77°F / 25°C 72°F / 22°C 83% 29.98 in
(1015 mb)
E 3.5 mph
(E 6 kph)
- 10SM
18:15
Clear
79°F / 26°C 72°F / 22°C 79% 29.98 in
(1015 mb)
E 4.6 mph
(E 7 kph)
- 10SM
17:55
Clear
79°F / 26°C 72°F / 22°C 79% 29.98 in
(1015 mb)
E 4.6 mph
(E 7 kph)
- 10SM
17:35
Clear
79°F / 26°C 72°F / 22°C 79% 29.98 in
(1015 mb)
ENE 4.6 mph
(ENE 7 kph)
- 10SM
17:15
Clear
79°F / 26°C 72°F / 22°C 79% 29.98 in
(1015 mb)
ENE 3.5 mph
(ENE 6 kph)
- 10SM
16:55
Clear
79°F / 26°C 70°F / 21°C 74% 29.98 in
(1015 mb)
ENE 4.6 mph
(ENE 7 kph)
- 10SM
16:35
Clear
81°F / 27°C 72°F / 22°C 74% 29.98 in
(1015 mb)
ENE 5.8 mph
(ENE 9 kph)
- 10SM
16:15
Clear
81°F / 27°C 72°F / 22°C 74% 29.98 in
(1015 mb)
ENE 5.8 mph
(ENE 9 kph)
- 10SM
15:55
Clear
81°F / 27°C 72°F / 22°C 74% 29.98 in
(1015 mb)
ENE 5.8 mph
(ENE 9 kph)
- 10SM
15:35
Clear
81°F / 27°C 72°F / 22°C 74% 29.98 in
(1015 mb)
NE 4.6 mph
(NE 7 kph)
- 10SM
15:15
Clear
81°F / 27°C 72°F / 22°C 74% 29.95 in
(1014 mb)
ENE 6.9 mph
(ENE 11 kph)
- 10SM
14:55
Partly Cloudy
81°F / 27°C 72°F / 22°C 74% 29.98 in
(1015 mb)
NE 4.6 mph
(NE 7 kph)
- 10SM
14:35
Clear
81°F / 27°C 72°F / 22°C 74% 29.98 in
(1015 mb)
N 4.6 mph
(N 7 kph)
- 10SM
14:15
Clear
81°F / 27°C 72°F / 22°C 74% 29.95 in
(1014 mb)
NE 6.9 mph
(NE 11 kph)
- 10SM
13:55
Clear
81°F / 27°C 72°F / 22°C 74% 29.98 in
(1015 mb)
NNE 5.8 mph
(NNE 9 kph)
- 10SM
13:35
Partly Cloudy
81°F / 27°C 72°F / 22°C 74% 29.98 in
(1015 mb)
NNE 5.8 mph
(NNE 9 kph)
- 10SM
13:15
Partly Cloudy
81°F / 27°C 72°F / 22°C 74% 29.98 in
(1015 mb)
N 4.6 mph
(N 7 kph)
- 10SM
12:55
Clear
81°F / 27°C 72°F / 22°C 74% 29.98 in
(1015 mb)
NE 8.1 mph
(NE 13 kph)
- 10SM
12:35
Clear
81°F / 27°C 72°F / 22°C 74% 29.98 in
(1015 mb)
NE 6.9 mph
(NE 11 kph)
- 10SM
12:15
Partly Cloudy
82°F / 28°C 72°F / 22°C 70% 29.98 in
(1015 mb)
NE 5.8 mph
(NE 9 kph)
- 10SM
11:55
Clear
81°F / 27°C 72°F / 22°C 74% 29.98 in
(1015 mb)
NE 6.9 mph
(NE 11 kph)
- 10SM
11:35
Clear
81°F / 27°C 72°F / 22°C 74% 29.98 in
(1015 mb)
NE 8.1 mph
(NE 13 kph)
- 10SM
11:15
Clear
81°F / 27°C 72°F / 22°C 74% 29.98 in
(1015 mb)
NE 3.5 mph
(NE 6 kph)
- 10SM
10:55
Clear
81°F / 27°C 72°F / 22°C 74% 29.98 in
(1015 mb)
NNE 6.9 mph
(NNE 11 kph)
- 10SM
10:35
Clear
81°F / 27°C 72°F / 22°C 74% 29.98 in
(1015 mb)
NE 5.8 mph
(NE 9 kph)
- 10SM
10:15
Clear
81°F / 27°C 72°F / 22°C 74% 29.98 in
(1015 mb)
NE 6.9 mph
(NE 11 kph)
- 10SM
09:55
Partly Cloudy
81°F / 27°C 72°F / 22°C 74% 29.98 in
(1015 mb)
NE 9.2 mph
(NE 15 kph)
- 10SM
09:35
Mostly Cloudy
81°F / 27°C 72°F / 22°C 74% 29.98 in
(1015 mb)
NNE 5.8 mph
(NNE 9 kph)
- 10SM
09:15
Partly Cloudy
81°F / 27°C 73°F / 23°C 79% 29.98 in
(1015 mb)
N 5.8 mph
(N 9 kph)
- 10SM
08:55
Mostly Cloudy
81°F / 27°C 73°F / 23°C 79% 29.95 in
(1014 mb)
NE 8.1 mph
(NE 13 kph)
- 10SM
08:35
Partly Cloudy
81°F / 27°C 73°F / 23°C 79% 29.95 in
(1014 mb)
NE 6.9 mph
(NE 11 kph)
- 10SM
08:15
Overcast
79°F / 26°C 73°F / 23°C 84% 29.95 in
(1014 mb)
NNE 5.8 mph
(NNE 9 kph)
- 10SM
07:55
Overcast
79°F / 26°C 73°F / 23°C 84% 29.95 in
(1014 mb)
NE 6.9 mph
(NE 11 kph)
- 10SM
07:35
Overcast
79°F / 26°C 73°F / 23°C 84% 29.92 in
(1013 mb)
NE 6.9 mph
(NE 11 kph)
- 10SM
07:15
Overcast
77°F / 25°C 73°F / 23°C 89% 29.92 in
(1013 mb)
NE 6.9 mph
(NE 11 kph)
- 10SM
06:55
Mostly Cloudy
77°F / 25°C 73°F / 23°C 89% 29.92 in
(1013 mb)
NE 4.6 mph
(NE 7 kph)
- 10SM
06:35
Overcast
77°F / 25°C 73°F / 23°C 89% 29.92 in
(1013 mb)
NE 6.9 mph
(NE 11 kph)
- 10SM
06:15
Overcast
77°F / 25°C 73°F / 23°C 89% 29.92 in
(1013 mb)
NNE 5.8 mph
(NNE 9 kph)
- 10SM
05:55
Overcast
75°F / 24°C 73°F / 23°C 94% 29.89 in
(1012 mb)
NNE 5.8 mph
(NNE 9 kph)
- 10SM
05:35
Mostly Cloudy
75°F / 24°C 73°F / 23°C 94% 29.89 in
(1012 mb)
Calm - 10SM
05:15
Clear
75°F / 24°C 73°F / 23°C 94% 29.89 in
(1012 mb)
Calm - 10SM
04:55
Clear
75°F / 24°C 73°F / 23°C 94% 29.89 in
(1012 mb)
Calm - 10SM
04:35
Partly Cloudy
75°F / 24°C 73°F / 23°C 94% 29.86 in
(1011 mb)
Calm - 10SM
04:15
Partly Cloudy
75°F / 24°C 73°F / 23°C 94% 29.86 in
(1011 mb)
Calm - 10SM
03:55
Mostly Cloudy
75°F / 24°C 73°F / 23°C 94% 29.86 in
(1011 mb)
N 3.5 mph
(N 6 kph)
- 10SM
03:35
Overcast
75°F / 24°C 73°F / 23°C 94% 29.86 in
(1011 mb)
Calm - 10SM
03:15
Overcast
75°F / 24°C 73°F / 23°C 94% 29.86 in
(1011 mb)
Calm - 7SM
02:55
Partly Cloudy
75°F / 24°C 73°F / 23°C 94% 29.86 in
(1011 mb)
Calm - 10SM
02:35
Clear
75°F / 24°C 73°F / 23°C 94% 29.86 in
(1011 mb)
Calm - 10SM
02:15
Clear
75°F / 24°C 73°F / 23°C 94% 29.83 in
(1010 mb)
Calm - 10SM
01:55
Clear
75°F / 24°C 73°F / 23°C 94% 29.83 in
(1010 mb)
Calm - 7SM
01:35
Clear
75°F / 24°C 73°F / 23°C 94% 29.83 in
(1010 mb)
Calm - 7SM
01:15
Clear
75°F / 24°C 73°F / 23°C 94% 29.83 in
(1010 mb)
Calm - 7SM
00:55
Clear
Fog And Mist
75°F / 24°C 73°F / 23°C 94% 29.83 in
(1010 mb)
Calm - 5SM
00:35
Clear
75°F / 24°C 73°F / 23°C 94% 29.83 in
(1010 mb)
Calm - 7SM
00:15
Clear
Fog And Mist
75°F / 24°C 73°F / 23°C 94% 29.86 in
(1011 mb)
Calm - 5SM
Time Weather Temperature Dewpoint Humidity Pressure Winds Precip Visibility


Weather for websites

WeatherForYou.com, LLC is not responsible for any damages or problems caused by this service. Current weather conditions are obtained from the closest station including government and personal stations which may have varying degrees of accuracy. Weather forecasts are derived from the NOAA NDFD. Like all things, this site belongs to Jesus Christ... He just trusts me to maintain it. If you have any questions or comments email webmaster@weatherforyou.com

Copyright © 2014, WeatherForYou.com LLC. All rights reserved.